FW3072 Weather Reports


Display with metric or nautical units.
time (UTC)temp
F
wind
direction
speed
MPH
gust
MPH
rain 1hr
in
rain 24hr
in
rain mn
in
humidity
%
barometer
mb
20260903205204 79 359 0.0 6.0 0.00 0.44 0.00 85 1011.3
20260903204204 79 359 1.0 5.0 0.00 0.44 0.00 85 1011.3
20260903203204 79 359 1.0 5.0 0.00 0.44 0.00 84 1011.5
20260903202225 79 359 1.0 6.0 0.00 0.44 0.00 84 1011.8
20260903201203 79 359 1.0 4.0 0.00 0.44 0.00 83 1011.8
20260903200204 80 359 0.0 6.0 0.00 0.44 0.00 82 1011.8
20260903195203 81 357 2.0 5.0 0.00 0.44 0.00 81 1011.9
20260903194204 81 359 1.0 5.0 0.00 0.44 0.00 81 1011.8
20260903193203 82 359 0.0 8.0 0.00 0.44 0.00 80 1011.7
20260903192204 82 359 2.0 8.0 0.00 0.44 0.00 80 1011.8
20260903191204 82 359 4.0 9.0 0.00 0.44 0.00 80 1012.0
20260903190204 82 359 3.0 9.0 0.00 0.44 0.00 81 1012.1
20260903185226 82 359 3.0 11.0 0.00 0.44 0.00 80 1012.1
20260903184204 82 359 6.0 13.0 0.00 0.44 0.00 80 1012.0
20260903183203 81 359 2.0 9.0 0.00 0.44 0.00 82 1012.2
20260903182226 81 359 2.0 11.0 0.00 0.44 0.00 83 1012.2
20260903181204 80 358 1.0 5.0 0.00 0.44 0.00 84 1012.2
20260903180204 80 359 2.0 10.0 0.00 0.44 0.00 85 1012.3
20260903175205 80 359 1.0 10.0 0.00 0.44 0.00 86 1012.5
20260903174204 79 359 0.0 4.0 0.00 0.44 0.00 87 1012.5
20260903173205 78 352 2.0 4.0 0.00 0.44 0.00 87 1012.6
20260903172226 78 354 1.0 9.0 0.00 0.44 0.00 87 1012.6
20260903171203 78 360 0.0 5.0 0.00 0.44 0.00 87 1012.6
20260903170204 78 359 2.0 9.0 0.00 0.44 0.00 87 1012.7
20260903165224 79 358 4.0 11.0 0.00 0.44 0.00 88 1012.7
20260903164225 78 359 1.0 6.0 0.00 0.44 0.00 88 1012.6
20260903163203 78 359 0.0 6.0 0.00 0.44 0.00 88 1012.6
20260903162204 78 359 1.0 5.0 0.00 0.44 0.00 87 1012.8
20260903161203 77 3 1.0 6.0 0.00 0.44 0.00 88 1012.8
20260903160204 77 359 1.0 5.0 0.00 0.44 0.00 89 1012.9
20260903155203 77 358 1.0 6.0 0.00 0.44 0.00 89 1013.0
20260903154205 77 359 1.0 4.0 0.00 0.44 0.00 89 1013.2
20260903153224 77 359 0.0 6.0 0.00 0.44 0.00 90 1013.2
20260903152204 76 359 2.0 8.0 0.00 0.44 0.00 91 1013.3
20260903151203 76 359 4.0 11.0 0.00 0.44 0.00 93 1013.3
20260903150205 75 359 1.0 8.0 0.00 0.44 0.00 93 1013.2
20260903145203 75 356 1.0 5.0 0.00 0.44 0.00 93 1013.3
20260903144203 74 359 2.0 5.0 0.00 0.44 0.00 94 1013.3
20260903143225 74 359 3.0 10.0 0.00 0.44 0.00 95 1013.3
20260903142208 74 350 1.0 6.0 0.00 0.44 0.00 95 1013.3
20260903141203 73 359 2.0 9.0 0.00 0.44 0.00 95 1013.2
20260903140203 73 359 0.0 9.0 0.00 0.44 0.00 95 1013.3
20260903135204 73 359 2.0 6.0 0.00 0.44 0.00 96 1013.3
20260903134207 73 359 4.0 9.0 0.00 0.44 0.00 96 1013.3
20260903133204 72 358 2.0 5.0 0.00 0.44 0.00 96 1013.3
20260903132203 72 359 0.0 9.0 0.00 0.44 0.00 96 1013.3
20260903131246 72 359 1.0 9.0 0.00 0.44 0.00 96 1013.5
20260903130204 71 359 3.0 6.0 0.00 0.44 0.00 96 1013.5
20260903125247 71 359 1.0 8.0 0.00 0.44 0.00 96 1013.6
20260903124204 71 359 2.0 5.0 0.00 0.44 0.00 96 1013.8
20260903123205 71 359 2.0 4.0 0.00 0.44 0.00 96 1013.8
20260903122204 70 359 1.0 3.0 0.00 0.44 0.00 96 1013.8
20260903121205 70 360 0.0 2.0 0.00 0.44 0.00 96 1013.8
20260903120204 70 279 0.0 6.0 0.00 0.44 0.00 96 1013.8
20260903115246 70 359 1.0 5.0 0.00 0.44 0.00 96 1013.7
20260903114204 70 356 2.0 5.0 0.00 0.44 0.00 96 1013.5
20260903113203 69 335 2.0 6.0 0.00 0.44 0.00 96 1013.3
20260903112225 69 359 2.0 4.0 0.00 0.44 0.00 96 1013.2
20260903111203 68 360 0.0 2.0 0.00 0.44 0.00 95 1013.2
20260903110204 68 360 0.0 1.0 0.00 0.44 0.00 95 1013.0
20260903105203 68 359 0.0 1.0 0.00 0.44 0.00 95 1012.8
20260903104226 68 360 0.0 0.0 0.00 0.44 0.00 95 1012.5
20260903103227 68 360 0.0 1.0 0.00 0.44 0.00 95 1012.4
20260903102204 68 360 0.0 0.0 0.00 0.44 0.00 95 1012.5
20260903101248 69 360 0.0 0.0 0.00 0.44 0.00 95 1012.5
20260903100224 69 359 0.0 2.0 0.00 0.44 0.00 95 1012.3
20260903095204 69 360 0.0 0.0 0.00 0.44 0.00 95 1012.3
20260903094203 69 360 0.0 0.0 0.00 0.44 0.00 95 1012.2
20260903093204 69 360 0.0 1.0 0.00 0.44 0.00 95 1012.2
20260903092203 69 359 0.0 1.0 0.00 0.44 0.00 95 1011.9
20260903091204 69 360 0.0 0.0 0.00 0.44 0.00 95 1011.9
20260903090207 69 360 0.0 0.0 0.00 0.44 0.00 95 1011.9
20260903085203 69 360 0.0 0.0 0.00 0.44 0.00 95 1011.8
20260903084205 69 360 0.0 0.0 0.00 0.44 0.00 95 1011.8
20260903083204 69 360 0.0 0.0 0.00 0.44 0.00 95 1011.9
20260903082225 69 360 0.0 0.0 0.00 0.44 0.00 95 1011.9
20260903081205 69 360 0.0 2.0 0.00 0.44 0.00 95 1011.7
20260903080203 69 359 1.0 3.0 0.00 0.44 0.00 95 1011.7
20260903075204 69 360 0.0 3.0 0.00 0.44 0.00 95 1011.7
20260903074245 69 360 0.0 2.0 0.00 0.44 0.00 95 1011.6
20260903073224 69 359 0.0 3.0 0.00 0.44 0.00 95 1011.6
20260903072204 69 359 0.0 2.0 0.00 0.44 0.00 95 1011.6
20260903071204 70 359 0.0 2.0 0.00 0.44 0.00 95 1011.5
20260903070203 70 353 1.0 5.0 0.00 0.44 0.00 95 1011.6
20260903065204 70 359 1.0 8.0 0.00 0.44 0.00 95 1012.0
20260903064203 70 360 0.0 4.0 0.00 0.44 0.00 95 1012.0
20260903063204 70 359 1.0 4.0 0.00 0.44 0.00 95 1012.0
20260903062205 70 359 2.0 5.0 0.00 0.44 0.00 95 1012.1
20260903061203 70 359 0.0 4.0 0.00 0.44 0.00 95 1012.1
20260903060205 70 359 1.0 5.0 0.00 0.44 0.00 95 1012.0
20260903055203 69 359 1.0 4.0 0.00 0.44 0.00 95 1011.7
20260903054204 70 281 1.0 3.0 0.00 0.44 0.00 95 1011.7
20260903053203 70 350 1.0 6.0 0.00 0.44 0.00 95 1011.9
20260903051203 70 359 2.0 6.0 0.00 0.44 0.00 95 1011.7
20260903050204 70 359 2.0 6.0 0.00 0.44 0.00 95 1011.9
20260903045203 69 359 1.0 3.0 0.00 0.44 0.00 95 1011.9
20260903044203 69 359 0.0 3.0 0.00 0.44 0.00 95 1011.8
20260903042203 69 359 1.0 3.0 0.00 0.44 0.00 95 1011.4
20260903041204 69 359 0.0 5.0 0.00 0.44 0.00 95 1011.5
20260903040203 69 2 1.0 3.0 0.00 0.44 0.00 95 1011.3
20260903035205 69 359 0.0 1.0 0.00 0.45 0.45 95 1011.1
20260903034203 69 359 0.0 1.0 0.00 0.45 0.45 95 1011.1
20260903033205 69 359 0.0 2.0 0.00 0.45 0.45 95 1011.4
20260903032203 69 360 0.0 0.0 0.00 0.45 0.45 95 1011.3
20260903031204 69 360 0.0 2.0 0.00 0.45 0.45 95 1011.7
20260903030224 69 360 0.0 0.0 0.00 0.45 0.45 95 1012.2
20260903025203 69 360 0.0 1.0 0.00 0.45 0.45 95 1012.3
20260903024204 70 360 0.0 2.0 0.00 0.45 0.45 95 1012.0
20260903023204 70 359 0.0 2.0 0.00 0.45 0.45 95 1012.5
20260903022204 70 360 0.0 1.0 0.00 0.45 0.45 94 1012.8
20260903021203 70 359 0.0 2.0 0.00 0.45 0.45 94 1012.8
20260903020204 70 359 0.0 3.0 0.00 0.45 0.45 94 1012.6
20260903015225 70 359 1.0 3.0 0.10 0.45 0.45 94 1012.7
20260903014204 70 359 1.0 3.0 0.10 0.45 0.45 94 1012.6
20260903013203 70 360 0.0 2.0 0.09 0.44 0.44 94 1013.3
20260903012204 70 359 1.0 5.0 0.00 0.35 0.35 94 1013.0
20260903011203 70 360 0.0 2.0 0.00 0.35 0.35 94 1011.9
20260903010228 70 360 0.0 0.0 0.00 0.35 0.35 94 1012.2
20260903005204 70 360 0.0 2.0 0.03 0.34 0.34 94 1012.1
20260903004204 70 360 0.0 3.0 0.03 0.34 0.34 93 1011.1
20260903003207 70 359 1.0 3.0 0.03 0.34 0.34 93 1010.6
20260903002204 70 360 0.0 4.0 0.03 0.34 0.34 93 1011.2
20260903001225 70 359 1.0 5.0 0.01 0.32 0.32 93 1011.0
20260903000204 70 359 4.0 12.0 0.00 0.31 0.31 92 1010.9
20260902235204 71 0 5.0 14.0 0.23 0.29 0.29 92 1010.8
20260902234203 72 359 4.0 13.0 0.20 0.26 0.26 91 1011.4
20260902233204 73 359 5.0 16.0 0.17 0.23 0.23 91 1012.5
20260902232203 73 359 8.0 20.0 0.16 0.22 0.22 89 1012.7
20260902225202 80 359 4.0 11.0 0.00 0.00 0.00 87 1011.5
20260902224203 80 359 4.0 15.0 0.00 0.00 0.00 87 1010.5
20260902223202 80 358 4.0 10.0 0.00 0.00 0.00 87 1010.8
20260902222202 80 359 1.0 6.0 0.00 0.00 0.00 86 1010.7
20260902221202 81 359 1.0 9.0 0.00 0.00 0.00 86 1010.7
20260902220202 81 359 2.0 9.0 0.00 0.00 0.00 85 1010.6
20260902215202 82 359 0.0 2.0 0.00 0.00 0.00 85 1010.2
20260902214202 82 359 0.0 2.0 0.00 0.00 0.00 85 1009.8
20260902213203 82 360 0.0 2.0 0.00 0.00 0.00 86 1009.8
20260902212202 82 359 1.0 4.0 0.00 0.00 0.00 86 1010.3
20260902211203 82 359 2.0 3.0 0.00 0.00 0.00 87 1010.9
20260902210203 81 360 0.0 1.0 0.00 0.00 0.00 87 1011.0